Location: *
(58.2667°N, 22.3833°E)
Time: 14:13:34
(UTC+00:00)

Daily predictions for brighter satellites

Satellite Brightness Start Highest point End
(mag) Time Altitude Azimuth Time Altitude Azimuth Time Altitude Azimuth
Cosmos 2360 Rocket 4.1 17:19:27 10° NW 17:24:25 32° WSW 17:29:22 10° S
Cosmos 2315 Rocket 4.3 17:18:45 10° SSW 17:25:01 76° WNW 17:31:16 10° N
SJ-11-01 4.4 17:20:30 10° SSE 17:25:13 67° ENE 17:29:57 10° NNW
Cosmos 1536 Rocket 4.0 17:22:34 10° NNW 17:26:54 66° W 17:31:11 10° S
Meteor 1-12 Rocket 4.5 17:22:03 10° SSE 17:27:32 49° E 17:32:58 10° NNE
COBE Rocket 4.3 17:24:19 10° NNE 17:29:15 73° WNW 17:34:19 10° SSW
Cosmos 1025 Rocket 3.4 17:25:40 10° NNW 17:29:57 71° W 17:34:12 10° S
SPOT 3 Rocket 3.6 17:25:07 10° SE 17:30:13 64° ENE 17:35:20 10° NNW
HJ-1C 3.7 17:27:25 10° S 17:30:47 72° WSW 17:34:11 10° NNW
Cosmos 1743 3.2 17:27:00 10° SSW 17:30:50 68° WNW 17:34:44 10° N
USA 234 3.3 17:24:34 10° E 17:31:10 76° SSE 17:37:45 10° WSW
Nadezhda 1 Rocket 4.1 17:25:21 10° SSE 17:31:11 51° E 17:37:03 10° NNE
CZ-2D R/B 4.3 17:28:40 10° S 17:32:23 50° W 17:36:07 10° NNW
Cosmos 2082 Rocket 3.8 17:27:27 10° W 17:32:40 35° NNW 17:37:57 10° NE
Timation 2 Rocket 4.3 17:27:09 10° S 17:33:17 44° ESE 17:39:12 10° NE
NOSS 0 Rocket 4.1 17:27:53 10° NW 17:34:08 84° SW 17:40:21 10° SE
ADEOS Rocket 4.1 17:30:32 10° NNE 17:36:49 32° E 17:43:30 10° SSE
Meteor 2-15 4.5 17:31:14 10° S 17:37:18 65° E 17:43:25 10° NNE
Cosmos 1892 Rocket 4.0 17:33:48 10° N 17:38:07 43° ENE 17:42:22 10° SE
EO 1 Delta rocket 4.4 17:32:32 10° SSE 17:39:00 74° ENE 17:44:12 10° N
Okean 1-7 Rocket 4.0 17:35:22 10° N 17:39:39 45° ENE 17:43:55 10° SE
Cosmos 1140 Rocket 3.7 17:36:32 10° NNW 17:41:42 57° NE 17:46:47 10° SE
Cosmos 1975 3.2 17:38:47 10° SSW 17:42:46 72° WNW 17:46:49 10° N
Cosmos 2219 4.3 17:38:59 10° SSE 17:43:15 22° ESE 17:47:31 10° NE
Spot 2 Rocket 4.4 17:40:06 10° ESE 17:44:32 32° NE 17:48:59 10° N
ATLAS 2AS CENTAUR R/B 3.6 17:37:17 10° NW 17:44:51 54° SW 17:51:51 10° SSE
Cosmos 2227 Rocket 3.7 17:42:10 10° SE 17:45:05 14° E 17:48:00 10° ENE
Terra 3.9 17:45:20 10° ENE 17:47:35 13° NE 17:49:51 10° NNE
Meteor 2-9 Rocket 4.2 17:42:03 10° S 17:47:47 77° ESE 17:53:24 10° NNE
CZ-2C R/B 3.9 17:46:45 10° NNE 17:51:06 45° E 17:55:22 10° S
COSMO-SKYMED 1 4.1 17:48:25 10° N 17:52:32 42° WNW 17:56:37 10° SW
Cosmos 1833 4.2 17:47:30 10° SSW 17:53:12 79° SE 17:58:53 10° NE
Cosmos 1437 Rocket 3.6 17:50:20 10° N 17:53:51 32° ENE 17:56:41 14° ESE
Cosmos 2297 Rocket 3.5 17:52:21 10° SE 17:55:59 18° E 17:59:37 10° ENE
RESURS DK-1 3.5 17:52:52 10° NNW 17:56:36 31° NNE 17:59:46 13° E
ARGOS 3.2 17:51:40 10° SSE 17:57:01 72° ENE 18:02:26 10° NNW
NOSS 2-1 (E) 4.0 17:53:52 10° W 17:57:36 58° NNW 18:02:23 10° ENE
Cosmos 2341 Rocket 4.0 17:52:30 10° N 17:58:49 75° ENE 18:05:03 10° SSE
SJ 16-02 4.2 17:58:16 10° WNW 18:00:40 14° NNW 18:03:04 10° N
Meteor 1-24 Rocket 4.2 17:55:52 10° N 18:01:17 45° ENE 18:06:25 12° SE
H-2A R/B 1.9 17:56:43 10° SSE 18:01:40 79° ENE 18:06:45 10° NNW
Cosmos 2151 Rocket 4.0 17:58:03 10° SSW 18:02:27 66° WNW 18:06:51 10° N
Cosmos 676 Rocket 4.1 17:57:44 10° NNW 18:03:02 66° NE 18:07:46 13° SE
Cosmos 1626 4.0 18:03:11 10° NNE 18:05:31 16° ENE 18:06:55 13° E
Cosmos 1300 Rocket 4.2 18:01:32 10° SSW 18:05:48 60° WNW 18:10:06 10° N
Cosmos 2333 Rocket 3.5 18:00:45 10° NW 18:06:02 40° WSW 18:11:19 10° S
Cosmos 1943 4.4 18:02:55 10° NW 18:08:01 32° NNE 18:12:36 12° E
Cosmos 405 Rocket 3.6 18:05:17 11° SSE 18:08:20 27° E 18:11:32 10° NE
ASTEX 1 3.3 18:03:32 10° N 18:08:27 78° E 18:13:21 10° S
Cosmos 2181 Rocket 4.4 18:03:38 10° SSE 18:09:29 43° E 18:15:27 10° NNE
SAR-Lupe-2 3.5 18:06:33 10° NNE 18:10:11 79° ESE 18:13:46 10° SSW
Cosmos 1461 3.2 18:07:39 10° SSW 18:11:22 38° SE 18:15:05 10° ENE
Cosmos 1544 3.0 18:09:01 10° SSW 18:12:37 89° ESE 18:16:17 10° NNE
Meteor 2-5 Rocket 3.8 18:09:31 10° NNW 18:15:17 68° ENE 18:21:08 10° SSE
Cosmos 2237 Rocket 2.6 18:13:19 10° NW 18:18:59 66° WSW 18:24:38 10° SSE
Cosmos 1190 Rocket 4.2 18:14:52 10° NNW 18:20:12 73° WSW 18:25:27 10° SSE
SL-24 R/B 4.3 18:16:06 11° SSE 18:20:24 71° ENE 18:25:29 10° NNW
Cosmos 2218 Rocket 4.1 18:14:01 10° N 18:20:27 69° ENE 18:26:47 10° SSE
CZ-4C R/B 3.1 18:14:57 10° W 18:20:44 58° N 18:27:42 10° ENE
In-Cosmos 22 4.1 18:16:09 10° NNW 18:21:31 85° WSW 18:26:55 10° S
MetOp-A 4.1 18:16:45 10° SSE 18:22:06 77° ENE 18:27:30 10° NNW
Cosmos 1544 Rocket 4.3 18:23:43 16° SSE 18:26:43 34° E 18:30:46 10° NNE
Cosmos 2366 rocket 4.0 18:20:29 10° N 18:26:53 71° ENE 18:33:06 11° SSE
Cosmos 1441 Rocket 3.3 18:23:19 10° SSW 18:27:07 76° WNW 18:30:55 10° NNE
Cosmos 1455 Rocket 3.5 18:23:36 11° SSE 18:27:32 40° E 18:31:44 10° NNE
Cosmos 1980 4.3 18:22:16 10° NW 18:27:48 56° WSW 18:33:18 10° SSE
Cosmos 389 Rocket 3.1 18:25:57 10° NNW 18:29:21 53° W 18:32:41 10° S
ERBS 2.8 18:26:45 10° W 18:30:03 49° SSW 18:31:32 27° SE
SL-08 RB Rocket 3.8 18:25:33 10° SSE 18:30:14 87° WSW 18:34:57 10° NNW
Cosmos 1805 4.2 18:29:37 24° ESE 18:30:34 27° E 18:33:55 10° NNE
Cosmos 864 Rocket 4.5 18:26:15 10° N 18:32:29 74° ENE 18:38:19 12° SSE
Cosmos 1850 Rocket 4.3 18:29:49 10° NNW 18:34:57 54° NE 18:38:00 23° ESE
Cosmos 1674 2.6 18:33:52 10° N 18:37:38 68° ENE 18:39:41 25° SSE
SL-8 Rocket 4.0 18:32:08 10° NNW 18:38:24 85° W 18:44:35 10° S
Cosmos 1626 Rocket 3.6 18:36:08 10° N 18:40:27 59° ENE 18:42:49 25° SE
FAST 4.5 18:38:09 10° SSW 18:41:01 78° WNW 18:43:41 10° N
Cosmos 1707 4.4 18:38:34 10° NNW 18:42:09 34° W 18:45:42 10° SSW
Cosmos 1603 4.3 18:37:25 10° NW 18:42:53 46° NE 18:46:12 22° ESE
SPOT 5 3.8 18:41:49 23° ESE 18:43:57 34° ENE 18:48:28 10° N
Resurs 1-3 4.0 18:39:37 10° S 18:43:59 63° WSW 18:48:22 10° NNW
CZ-2C R/B 3.2 18:39:01 11° SSE 18:44:02 82° WSW 18:49:40 10° NNW
Meteor 1-4 Rocket 3.3 18:41:12 10° NNW 18:44:43 49° W 18:47:52 12° S
Resurs 01 Rocket 1.8 18:42:03 13° S 18:45:55 74° WSW 18:50:24 10° NNW
Okean 1 Rocket 3.8 18:43:27 10° SSW 18:47:43 54° WNW 18:52:02 10° N
SL-16 R/B 2.2 18:42:30 10° NW 18:48:14 86° SW 18:51:53 23° SSE
DMSP B5D2-2 4.4 18:44:28 10° NNE 18:49:33 43° E 18:52:53 20° SSE
Landsat 7 4.2 18:50:47 28° ESE 18:52:52 46° ENE 18:57:26 10° N
KORONAS-FOTON 3.7 18:49:10 10° NNW 18:53:01 85° E 18:54:49 30° SSE
Cosmos 2056 Rocket 3.7 18:48:32 10° S 18:53:45 50° ESE 18:58:59 10° NE
SL-14 R/B 3.7 18:49:57 10° N 18:53:50 45° ENE 18:54:56 35° ESE
Cosmos 1758 Rocket 4.3 18:51:37 10° N 18:55:38 35° ENE 18:56:43 30° E
Cosmos 2219 Rocket 4.5 18:52:43 10° NW 18:56:43 20° WSW 19:00:44 10° SSW
Cosmos 1602 Rocket 3.5 18:55:53 10° N 19:00:17 73° ENE 19:02:12 33° SSE
SPOT 1/Viking Rocket 3.8 18:58:12 29° SE 19:00:37 54° ENE 19:05:39 10° NNW
CZ-4B DEB 4.4 19:02:01 49° SE 19:02:42 64° ENE 19:06:07 10° N
Cosmos 1741 Rocket 4.0 18:57:53 10° NNW 19:03:16 76° ENE 19:05:50 32° SE
Cosmos 1624 Rocket 3.9 19:00:57 10° SSW 19:06:02 60° ESE 19:11:11 10° NE
NOSS 3-3 (A) 4.1 19:00:13 10° WSW 19:06:30 87° NNW 19:13:41 10° ENE
NOSS 3-3 (C) 4.1 19:00:19 10° WSW 19:06:36 88° NNW 19:13:47 10° ENE
Cosmos 2082 4.3 19:08:35 32° SE 19:09:33 34° ESE 19:14:38 10° NE
Cosmos 1766 3.2 19:09:37 39° SSE 19:10:53 64° E 19:14:47 10° NNE
CZ-2C R/B 3.1 19:07:08 10° NNE 19:12:25 44° E 19:14:19 33° SE
USA 234 3.2 19:10:20 25° ESE 19:14:27 80° S 19:21:04 10° W
IGS 5A 3.6 19:15:05 45° ESE 19:16:02 58° ENE 19:20:09 10° N
Cosmos 2082 Rocket 4.3 19:13:52 10° WNW 19:18:24 23° N 19:22:56 10° NE
Timation 2 Rocket 4.5 19:14:13 10° SW 19:20:40 63° NW 19:26:52 10° NE
Cosmos 1733 3.4 19:22:27 49° E 19:22:27 49° E 19:25:53 10° NNE
ERS-1 Rocket 2.9 19:20:29 39° SE 19:22:21 72° ENE 19:27:24 10° NNW
ADEOS Rocket 3.5 19:15:55 10° NNE 19:22:57 82° WNW 19:30:35 10° SSW
Spot 2 Rocket 3.8 19:20:07 23° S 19:23:17 62° WSW 19:28:19 10° NNW
Terra 2.3 19:23:12 39° ESE 19:24:20 46° ENE 19:28:54 10° N
Meteor 1-21 Rocket 4.4 19:20:45 10° NNW 19:26:35 64° ENE 19:28:49 38° SE
Cosmos 2219 3.1 19:20:53 10° SSW 19:26:39 82° SE 19:32:26 10° NE
Cosmos 2227 Rocket 2.2 19:22:28 10° SSW 19:28:01 58° ESE 19:33:36 10° NE
Cosmos 1437 Rocket 4.0 19:26:37 10° NNW 19:30:10 36° W 19:32:06 21° SSW
Cosmos 1758 4.2 19:34:51 36° ENE 19:34:51 36° ENE 19:37:51 10° NNE
RESURS DK-1 2.4 19:30:52 10° NW 19:35:00 71° SW 19:35:39 58° S
Cosmos 1371 Rocket 4.1 19:31:13 10° SSW 19:36:34 82° WNW 19:41:59 10° NNE
Cosmos 2297 Rocket 2.1 19:33:29 10° SSW 19:39:07 69° ESE 19:44:46 10° NE
Cosmos 1626 2.0 19:37:37 10° NNW 19:41:22 85° W 19:41:29 82° SSW
H-2A R/B 4.1 19:37:52 10° SW 19:41:44 23° W 19:45:41 10° NW
Cosmos 1934 Rocket 3.9 19:36:54 10° N 19:43:00 69° ENE 19:45:04 43° SE
Cosmos 405 Rocket 4.0 19:40:45 10° SW 19:44:14 39° WNW 19:47:46 10° N
Cosmos 1452 Rocket 3.6 19:48:04 52° SE 19:48:22 53° ESE 19:53:29 10° NE
Cosmos 1470 3.5 19:50:45 40° NE 19:50:45 40° NE 19:53:40 10° NNE
Cosmos 1461 3.3 19:46:28 10° WSW 19:50:23 56° NNW 19:54:05 11° NE
Meteor 2-12 Rocket 4.4 19:45:46 10° NNW 19:51:53 80° W 19:54:26 37° S
Cosmos 1953 3.6 19:53:49 29° NE 19:53:49 29° NE 19:56:15 10° NNE
Cosmos 1943 3.2 19:47:10 10° NW 19:52:55 78° NE 19:54:24 51° SE
Cosmos 2263 Rocket 4.2 19:59:53 14° ENE 19:59:53 14° ENE 20:01:11 10° ENE
Cosmos 2285 Rocket 4.4 19:52:37 10° NNW 19:58:55 53° NE 20:01:02 39° E
Cosmos 968 Rocket 4.4 19:54:26 10° NNW 19:59:19 38° NE 20:00:34 33° ENE
Mayak 1.2 19:59:55 10° NE 20:00:31 12° NE 20:00:31 12° NE
Cosmos 1241 Rocket 4.5 19:56:22 10° NW 20:02:46 76° NE 20:04:45 46° ESE
Cosmos 1805 4.4 20:04:51 28° WSW 20:06:26 42° WNW 20:10:11 10° N
Cosmos 1953 Rocket 3.4 20:02:43 10° NNW 20:07:15 89° ENE 20:07:26 83° SSE
Nadezhda 3 Rocket 3.9 20:06:22 39° S 20:08:50 86° ESE 20:15:07 10° NNE
CARTOSAT-1 3.6 20:08:50 66° SW 20:09:08 68° WSW 20:13:29 10° NNW
CZ-4C R/B 3.0 20:03:54 10° WNW 20:10:09 62° NNE 20:14:29 26° E
Cosmos 1271 Rocket 3.3 20:08:36 10° NNW 20:11:36 53° N 20:11:36 53° N
Helios 1A 4.1 20:14:15 33° NE 20:14:15 33° NE 20:17:49 10° N
ARGOS Delta rocket 4.0 20:16:28 66° ESE 20:17:04 73° ENE 20:22:11 10° N
Cosmos 1605 Rocket 4.0 20:12:09 10° NNW 20:18:38 80° ENE 20:20:09 55° SSE
Cosmos 1821 Rocket 4.5 20:15:40 10° NNW 20:21:41 53° W 20:24:15 33° SSW
SPOT 5 3.3 20:21:03 49° SW 20:21:51 55° W 20:26:48 10° NNW
Geosat 4.0 20:21:32 62° E 20:22:07 68° NE 20:27:08 10° NW
EO 1 Del DPAF 4.2 20:18:55 10° NNE 20:21:25 40° NNE 20:21:25 40° NNE
Resurs 01 Rocket 4.3 20:20:51 10° WSW 20:23:14 14° W 20:25:37 10° NW
Cosmos 2228 3.7 20:25:27 47° NE 20:25:27 47° NE 20:28:49 10° NNE
Cosmos 1825 Rocket 4.1 20:20:48 10° NNW 20:25:01 49° W 20:25:16 48° WSW
SL-24 R/B 4.3 20:21:59 10° NNE 20:25:04 57° NNE 20:25:04 57° NNE
MOS 1 Rocket 3.4 20:21:07 10° NNE 20:26:26 74° ESE 20:26:32 74° ESE
Cosmos 1603 3.9 20:21:41 10° NW 20:27:14 58° WSW 20:28:05 52° SSW
SL-16 R/B 3.9 20:27:19 10° NW 20:31:40 23° WSW 20:33:46 19° SW
Cosmos 1153 Rocket 4.4 20:25:49 10° N 20:32:09 71° ENE 20:33:11 60° SE
Cosmos 2100 Rocket 4.3 20:26:00 10° N 20:32:15 52° ENE 20:33:15 48° E
IRAS Rocket 4.2 20:32:07 61° E 20:32:43 65° ENE 20:38:11 10° NNW
Cosmos 1703 4.0 20:29:03 10° N 20:32:07 50° N 20:32:07 50° N
Cosmos 1758 Rocket 4.5 20:29:32 10° NNW 20:33:34 39° W 20:33:52 38° WSW
Cosmos 2058 Rocket 4.1 20:35:21 38° NE 20:35:21 38° NE 20:38:22 10° NNE
Cosmos 1354 Rocket 4.3 20:33:26 10° NNW 20:38:41 56° NE 20:39:02 55° ENE
Cosmos 2058 4.5 20:36:54 10° N 20:39:42 27° NE 20:39:42 27° NE
Cosmos 1242 Rocket 4.1 20:39:08 10° NNW 20:41:11 33° N 20:41:11 33° N
Cosmos 1420 Rocket 4.3 20:41:54 34° SW 20:44:09 65° NW 20:49:30 10° NNE
Meteor 1-16 Rocket 4.3 20:44:11 65° ESE 20:44:14 65° E 20:49:59 10° NNE
Cosmos 1606 Rocket 3.9 20:45:51 66° N 20:45:51 66° N 20:49:46 10° NNE
Cosmos 1110 Rocket 4.5 20:53:39 50° ENE 20:53:39 50° ENE 20:57:50 10° NE
CZ-2C R/B 3.5 20:47:32 10° N 20:52:49 48° WNW 20:55:49 25° WSW
NOSS 2-1 (C) 4.2 20:48:42 10° WNW 20:53:06 62° NNE 20:53:43 57° ENE
Cosmos 2082 3.9 20:50:21 29° SW 20:53:21 70° NW 20:59:06 10° NE
NOSS 2-1 (D) 4.2 20:51:52 10° WNW 20:56:18 64° NNE 20:56:47 60° NE
Cosmos 1486 Rocket 4.0 20:52:14 10° NNW 20:57:19 73° W 20:57:19 73° W
USA 234 3.3 20:57:40 55° SSW 20:57:56 55° SSW 21:04:23 10° WNW
Cosmos 2173 Rocket 4.0 20:54:45 10° N 21:01:09 70° ENE 21:01:49 65° ESE
Terra 2.8 21:02:05 36° W 21:02:13 37° W 21:06:39 10° NNW
Cosmos 2082 Rocket 3.9 20:59:17 10° NW 21:04:17 29° NNE 21:07:54 16° ENE
Thor Agena Rocket 3.7 21:01:09 10° NNE 21:06:27 71° WNW 21:06:55 67° WSW
ALOS 2 3.5 21:08:00 44° NNE 21:08:00 44° NNE 21:11:25 10° N
Cosmos 2227 Rocket 3.2 21:06:51 10° WSW 21:12:19 46° NW 21:17:48 10° NE
Cosmos 1802 Rocket 3.9 21:07:41 10° N 21:14:00 71° ENE 21:14:29 68° ESE
Cosmos 1459 Rocket 3.7 21:09:51 10° NNW 21:15:58 82° ENE 21:16:13 80° ESE
COSMOS 2406 3.8 21:15:01 10° NW 21:20:41 51° NE 21:21:35 47° ENE
Cosmos 2061 Rocket 4.0 21:14:57 10° N 21:21:26 73° ENE 21:21:55 69° ESE
SJ 16-02 4.1 21:19:36 10° N 21:21:59 14° NNE 21:24:21 10° ENE
Cosmos 1503 Rocket 4.1 21:16:58 10° NNW 21:21:41 69° WNW 21:21:41 69° WNW
Cosmos 2297 Rocket 3.4 21:18:13 10° WSW 21:23:33 41° NW 21:28:56 10° NE
Cosmos 1953 4.0 21:29:31 31° NW 21:29:31 31° NW 21:32:39 10° N
Spot 4 4.4 21:29:45 53° WNW 21:29:45 53° WNW 21:33:54 10° NNW
Cosmos 1461 4.5 21:26:31 10° WNW 21:30:06 31° N 21:30:27 31° N
Cosmos 2233 Rocket 4.4 21:26:15 10° N 21:32:13 49° ENE 21:32:42 48° E
Cosmos 371 Rocket 4.2 21:34:38 42° NE 21:34:38 42° NE 21:37:51 10° NNE
Cosmos 1943 4.5 21:31:41 10° NW 21:36:12 29° W 21:36:12 29° W
Cosmos 2016 Rocket 3.8 21:31:01 10° NNW 21:37:11 83° ENE 21:37:17 82° E
Mayak 0.1 21:34:34 10° NNE 21:37:06 36° NNE 21:37:06 36° NNE
NOSS 2-1 (E) 4.2 21:35:08 10° WNW 21:39:14 70° NW 21:39:14 70° NW
Cosmos 2263 Rocket 2.5 21:41:33 56° ENE 21:41:33 56° ENE 21:46:09 10° NE
Cosmos 968 Rocket 4.0 21:36:17 10° NW 21:40:34 53° WNW 21:40:34 53° WNW
ATLAS CENTAUR R/B 3.7 21:46:45 21° ENE 21:46:45 21° ENE 21:48:21 10° NE
Cosmos 2285 Rocket 4.4 21:39:38 10° NW 21:45:48 49° WSW 21:45:53 49° WSW
Cosmos 1833 Rocket 3.5 21:43:38 10° NW 21:49:03 44° NE 21:50:12 39° ENE
Cosmos 1727 Rocket 4.0 21:49:23 67° WSW 21:49:55 71° WNW 21:56:11 10° N
Cosmos 1726 4.3 21:53:05 26° NNW 21:53:05 26° NNW 21:55:01 10° N
CZ-4C R/B 2.6 21:52:27 10° WNW 21:59:09 78° SW 21:59:37 75° S
Cosmos 1302 Rocket 4.4 22:02:28 60° NNE 22:02:28 60° NNE 22:06:45 10° NNE
In-Cosmos 22 Rocket 4.3 21:57:32 10° NNW 22:02:17 66° NW 22:02:17 66° NW
USA 267 4.1 21:56:51 10° ENE 22:00:39 34° E 22:00:39 34° E
Cosmos 839 Rocket 4.0 21:57:32 10° NW 22:03:16 68° W 22:03:16 68° W
Cosmos 1331 Rocket 4.5 22:04:08 56° NW 22:04:09 56° NW 22:09:22 10° NNE
Cosmos 2227 4.3 22:06:05 70° NW 22:06:05 70° NW 22:11:46 10° NE
ERS-2 4.4 22:10:08 25° N 22:10:08 25° N 22:11:51 10° N
SL-16 R/B 4.0 22:05:27 20° E 22:08:28 30° NE 22:13:46 10° N
Cosmos 1777 Rocket 4.3 22:06:09 10° NNW 22:10:36 63° NNW 22:10:36 63° NNW
Meteor 2-3 Rocket 4.3 22:10:23 10° N 22:15:49 49° ENE 22:15:59 48° ENE
Meteor 2-1 Rocket 4.4 22:16:47 63° NE 22:16:47 63° NE 22:21:37 10° NNE
Nimbus 7 Rocket 4.4 22:13:12 10° NNE 22:19:16 74° WNW 22:19:29 73° W
Timation 1 Rocket 4.3 22:23:36 75° ENE 22:23:36 75° ENE 22:29:05 10° NE
Cosmos 2123 Rocket 3.9 22:27:07 84° ESE 22:27:08 84° E 22:33:31 10° NNE
Cosmos-2242 4.3 22:29:46 39° NNE 22:29:46 39° NNE 22:32:34 10° NNE
Cosmos 1725 Rocket 4.2 22:28:57 10° NNW 22:34:49 56° W 22:34:49 56° W
Cosmos 921 Rocket 4.4 22:36:51 36° NE 22:36:51 36° NE 22:39:38 10° NNE
Cosmos 1898 Rocket 4.3 22:33:34 10° NNW 22:38:34 45° NE 22:39:03 44° ENE
Cosmos 304 Rocket 4.5 22:46:46 52° N 22:46:46 52° N 22:50:38 10° NNE
CZ-4 R/B 4.4 22:42:50 10° NNE 22:46:54 58° NE 22:46:54 58° NE
Helios 1B rocket 3.9 22:44:34 10° NNE 22:47:06 35° N 22:47:06 35° N
Cosmos 1992 Rocket 4.3 22:50:00 64° NNE 22:50:00 64° NNE 22:54:27 10° NNE
Cosmos 2082 Rocket 2.4 22:43:38 10° NW 22:49:22 67° NE 22:49:42 65° ENE
Intercosmos 25 Rocket 4.4 22:49:27 75° ESE 22:49:30 75° E 22:57:46 10° NNE
Lacrosse 5 3.8 22:53:06 19° E 22:53:06 19° E 22:54:32 10° E
Cosmos 1825 4.3 22:46:06 10° NNW 22:47:47 25° NNW 22:47:47 25° NNW
Cosmos 1844 Rocket 3.1 22:52:36 55° ENE 22:52:36 55° ENE 22:57:20 10° NE
Cosmos 2227 Rocket 4.3 22:53:07 10° WNW 22:57:45 25° NNW 23:02:22 10° NE
SJ 16-02 2.6 22:57:38 10° NNW 23:01:35 38° NE 23:01:35 38° NE
COSMOS 2406 4.0 22:59:31 10° NW 23:03:37 41° WNW 23:03:37 41° WNW
Cosmos 2297 Rocket 4.4 23:04:33 10° WNW 23:09:05 24° N 23:13:38 10° NE
Mayak 1.0 23:11:00 10° N 23:13:40 18° NW 23:13:40 18° NW
Cosmos 1238 Rocket 4.3 23:09:31 10° NNW 23:12:29 40° NW 23:12:29 40° NW
Sich 1 4.0 23:13:26 10° N 23:16:54 45° NNE 23:16:54 45° NNE
ATLAS CENTAUR R/B 2.4 23:22:56 53° NNW 23:22:56 53° NNW 23:27:24 10° NE
Cosmos 1844 3.7 23:24:24 75° E 23:24:24 75° E 23:29:50 10° NE
Cosmos 2263 Rocket 3.2 23:23:14 33° WNW 23:24:49 40° NW 23:30:11 10° NE
H-2A R/B 3.1 23:26:33 41° NE 23:26:33 41° NE 23:29:55 10° N
Cosmos 1455 4.0 23:27:56 31° N 23:27:56 31° N 23:30:07 10° N
Cosmos 1805 Rocket 4.5 23:22:54 10° NNW 23:26:10 47° N 23:26:10 47° N
Cosmos 1607 3.8 23:27:13 80° W 23:27:35 85° NW 23:33:48 10° NE
Meteor 1-27 4.4 23:28:25 60° ESE 23:28:30 60° E 23:34:01 10° NNE
Meteor 2-20 4.3 23:31:36 80° SSE 23:31:55 84° E 23:38:02 10° NNE
Cosmos 1833 Rocket 3.2 23:27:42 10° NW 23:31:51 46° WNW 23:31:51 46° WNW
Cosmos 1818 4.0 23:35:30 52° WNW 23:36:19 57° NNW 23:41:44 10° NE
Resurs 1-4 Rocket 3.3 23:32:36 10° NNE 23:37:19 31° E 23:38:02 30° ESE
Cosmos 2278 Rocket 2.9 23:37:30 43° ESE 23:37:30 43° ESE 23:42:46 10° NE
PSLV R/B 4.1 23:34:51 10° NNE 23:38:56 65° N 23:38:56 65° N
UNK 4.1 23:40:27 64° NNE 23:40:27 64° NNE 23:44:38 10° NNW
Cosmos 990 Rocket 4.1 23:35:21 10° NNW 23:39:47 66° NNW 23:39:47 66° NNW
USA 267 3.1 23:40:10 10° E 23:46:45 78° S 23:47:58 61° WSW
CZ-4C R/B 4.0 23:41:11 10° WNW 23:44:45 26° W 23:44:45 26° W
Cosmos 1634 Rocket 4.3 23:41:39 10° N 23:47:56 62° ENE 23:50:07 40° SE
Cosmos 2221 3.2 23:51:12 51° N 23:51:12 51° N 23:54:31 10° N
SL-16 R/B 2.4 23:50:33 66° SSE 23:51:32 88° WSW 23:57:50 10° NNW
MOZ.5/SAFIR/RUBIN 5/SL-8 4.0 23:53:40 67° NNW 23:53:40 67° NNW 23:57:43 10° NNW
Cosmos 2084 Rocket 4.4 23:52:17 43° NNW 23:53:03 49° N 23:57:21 10° E
